Tracking 25734 objects as of 29-May-2022
HD Live streaming from Space Station
objects crossing your sky now

STARLINK-3121

Track STARLINK-3121 now!
10-day predictions
STARLINK-3121 is classified as:


NORAD ID: 49428
Int'l Code: 2021-104W
Perigee: 545.3 km
Apogee: 548.4 km
Inclination: 53.2 °
Period: 95.4 minutes
Semi major axis: 6917 km
RCS: Unknown
Launch date: November 13, 2021
Source: United States (US)
Launch site: AIR FORCE EASTERN TEST RANGE (AFETR)
aabbcc
Your satellite tracking list
Your tracking list is empty




NASA's NSSDC Master Catalog

Two Line Element Set (TLE):
1 49428U 21104W   22148.48961863  .00002621  00000-0  18268-3 0  9996
2 49428  53.2161 309.5787 0002241  28.0618 332.0494 15.08847200 30126
Source of the keplerian elements: AFSPC